TimeCDT,TemperatureF,Dew PointF,Humidity,Sea Level PressureIn,VisibilityMPH,Wind Direction,Wind SpeedMPH,Gust SpeedMPH,PrecipitationIn,Events,Conditions,WindDirDegrees,DateUTC
12:53 AM,57.0,48.9,74,30.04,10.0,SW,3.5,-,N/A,,Overcast,230,2013-07-29 05:53:00
1:53 AM,60.1,48.9,67,30.04,10.0,SW,4.6,-,N/A,,Overcast,220,2013-07-29 06:53:00
2:53 AM,59.0,50.0,72,30.04,10.0,WSW,4.6,-,N/A,,Overcast,250,2013-07-29 07:53:00
3:53 AM,57.0,48.9,74,30.04,10.0,WSW,5.8,-,N/A,,Scattered Clouds,250,2013-07-29 08:53:00
4:53 AM,53.1,48.9,86,30.06,10.0,SSW,5.8,-,N/A,,Clear,210,2013-07-29 09:53:00
5:53 AM,53.1,48.9,86,30.08,10.0,SW,4.6,-,N/A,,Clear,220,2013-07-29 10:53:00
6:53 AM,55.9,50.0,80,30.10,10.0,SW,3.5,-,N/A,,Clear,230,2013-07-29 11:53:00
7:53 AM,62.1,53.1,72,30.11,10.0,West,5.8,-,N/A,,Clear,260,2013-07-29 12:53:00
8:53 AM,66.0,54.0,65,30.13,10.0,WNW,5.8,-,N/A,,Clear,290,2013-07-29 13:53:00
9:53 AM,68.0,54.0,61,30.14,10.0,WNW,10.4,-,N/A,,Partly Cloudy,300,2013-07-29 14:53:00
10:53 AM,71.1,54.0,55,30.14,10.0,WNW,10.4,16.1,N/A,,Mostly Cloudy,290,2013-07-29 15:53:00
11:53 AM,71.1,54.0,55,30.14,10.0,Variable,6.9,-,N/A,,Scattered Clouds,0,2013-07-29 16:53:00
12:53 PM,72.0,55.0,55,30.14,10.0,NNW,6.9,-,N/A,,Mostly Cloudy,340,2013-07-29 17:53:00
1:53 PM,73.0,55.0,53,30.14,10.0,Variable,4.6,-,N/A,,Mostly Cloudy,0,2013-07-29 18:53:00
2:53 PM,75.0,55.0,50,30.14,10.0,Calm,Calm,-,N/A,,Mostly Cloudy,0,2013-07-29 19:53:00
3:53 PM,75.0,55.9,51,30.14,10.0,Calm,Calm,-,N/A,,Scattered Clouds,0,2013-07-29 20:53:00
4:53 PM,73.9,57.0,55,30.15,10.0,NNE,5.8,-,N/A,,Clear,20,2013-07-29 21:53:00
5:53 PM,73.9,57.0,55,30.16,10.0,NNE,4.6,-,N/A,,Clear,20,2013-07-29 22:53:00
6:53 PM,71.1,57.0,61,30.16,10.0,NE,3.5,-,N/A,,Clear,40,2013-07-29 23:53:00
7:53 PM,66.0,55.9,70,30.17,10.0,NE,3.5,-,N/A,,Clear,50,2013-07-30 00:53:00
8:53 PM,61.0,55.9,83,30.18,10.0,NE,4.6,-,N/A,,Clear,40,2013-07-30 01:53:00
9:53 PM,60.1,55.0,83,30.20,10.0,NE,4.6,-,N/A,,Clear,50,2013-07-30 02:53:00
10:53 PM,57.9,54.0,87,30.19,10.0,NE,4.6,-,N/A,,Clear,40,2013-07-30 03:53:00
11:53 PM,57.0,54.0,89,30.20,10.0,NE,3.5,-,N/A,,Clear,40,2013-07-30 04:53:00